Location: Sternwarte Stuttgart
(48.7670°N, 9.1830°E)
Time: 10:54:20
(UTC+02:00)

Daily predictions for brighter satellites

Satellite Brightness Start Highest point End
(mag) Time Altitude Azimuth Time Altitude Azimuth Time Altitude Azimuth
Cosmos 2341 Rocket 4.3 20:46:18 10° SSE 20:52:24 51° E 20:58:28 10° NNE
Cosmos 2219 Rocket 2.3 20:47:18 10° S 20:52:50 56° ESE 20:58:21 10° NE
Cosmos 1939 Rocket 2.8 20:51:09 10° SSE 20:55:01 69° ENE 20:58:56 10° N
Lacrosse 5 3.4 20:50:36 10° WNW 20:55:10 32° N 20:59:45 10° ENE
Cosmos 1470 Rocket 3.9 20:51:48 10° N 20:56:05 48° ENE 21:00:22 10° SSE
Cosmos 2237 Rocket 2.9 20:51:15 10° SSE 20:56:07 31° ESE 21:01:01 10° NE
Cosmos 2098 Rocket 4.5 20:55:20 10° SE 20:58:05 17° E 21:00:31 10° NE
ATLAS 5 CENTAUR R/B 4.1 20:56:21 10° NNW 21:00:24 21° NNE 21:04:49 10° ENE
Cosmos 2278 Rocket 2.3 20:56:09 10° NNW 21:01:51 72° ENE 21:07:30 10° SE
Resurs 01 Rocket 1.6 20:58:13 10° SSE 21:02:39 74° ENE 21:07:06 10° N
NOSS 2-1 (E) 3.2 20:59:01 10° SW 21:02:41 82° SE 21:07:01 10° NE
ERS-2 2.7 21:00:21 10° S 21:03:58 59° WSW 21:07:38 10° NNW
Meteor 2-2 Rocket 4.4 20:59:52 10° S 21:05:44 82° E 21:11:46 10° NNE
Thor Agena Rocket 3.6 21:01:07 10° NNE 21:06:21 73° ESE 21:11:38 10° S
Meteor 2-21 Rocket 4.5 21:00:28 10° S 21:06:35 76° E 21:12:47 10° NNE
NOSS 3-4 (A) 4.1 21:00:53 10° NW 21:07:38 56° NE 21:14:55 10° ESE
NOSS 3-4 (C) 4.2 21:00:59 10° NW 21:07:43 56° NE 21:15:01 10° ESE
Cosmos 1455 2.2 21:04:33 10° S 21:08:21 66° E 21:12:13 10° NNE
NOAA 11 4.3 21:05:46 10° SSE 21:11:11 63° ENE 21:16:38 10° N
Cosmos 1892 3.6 21:09:09 10° NNW 21:12:58 52° W 21:16:44 10° S
YAOGAN 6 3.0 21:10:06 10° S 21:13:41 67° WSW 21:17:22 10° NNW
SL-8 Rocket 4.2 21:09:06 10° SSE 21:15:08 50° E 21:21:09 10° NNE
NOSS 3-3 (A) 4.0 21:11:44 10° SSW 21:17:49 74° SE 21:24:35 10° NE
NOSS 3-3 (C) 4.0 21:11:51 10° SSW 21:17:56 74° SE 21:24:40 10° NE
Spot 2 Rocket 3.5 21:13:14 10° SSE 21:18:21 82° ENE 21:23:28 10° NNW
Aureole 2 4.0 21:20:52 10° S 21:23:48 60° ESE 21:26:45 10° NNE
BREEZE-M DEB (TANK) 2.5 21:19:55 10° WNW 21:24:06 55° SSW 21:25:44 16° SE
Cosmos 1933 Rocket 3.5 21:20:15 10° N 21:24:40 77° E 21:29:01 10° SSE
Genesis I 4.5 21:21:21 10° NW 21:25:10 39° WSW 21:28:57 10° S
Cosmos 405 3.8 21:25:30 10° N 21:28:43 33° ENE 21:31:03 16° SE
Cosmos 1151 Rocket 3.0 21:24:38 10° S 21:28:51 65° E 21:33:06 10° NNE
Resurs 1-3 4.4 21:29:56 10° S 21:34:13 53° W 21:38:32 10° NNW
Cosmos 1862 4.1 21:36:32 10° N 21:40:16 34° ENE 21:42:35 19° SE
Cosmos 405 Rocket 4.0 21:41:30 19° ESE 21:42:55 23° E 21:46:03 10° NE
Cosmos 1943 Rocket 4.1 21:42:00 10° N 21:45:31 17° NE 21:49:02 10° ENE
Cosmos 864 Rocket 4.5 21:40:11 10° S 21:46:11 61° E 21:52:15 10° NNE
SL-16 R/B 2.8 21:41:51 10° SSE 21:46:50 33° ESE 21:51:50 10° NE
Cosmos 1869 Rocket 4.0 21:42:59 10° N 21:47:12 43° ENE 21:49:53 20° SE
ARGOS 3.2 21:43:21 14° SSE 21:47:58 65° ENE 21:53:18 10° N
MetOp-B 4.3 21:44:38 15° SE 21:48:59 59° ENE 21:54:16 10° N
Cosmos 1825 2.5 21:45:51 10° NNW 21:49:38 66° W 21:53:22 10° S
Cosmos 407 Rocket 3.4 21:47:51 10° NNW 21:53:01 78° ENE 21:56:47 19° SSE
ERS-1 Rocket 3.3 21:50:05 18° SE 21:53:35 52° ENE 21:58:28 10° N
Helios 1A 3.8 21:51:41 21° ESE 21:53:51 35° ENE 21:57:40 10° N
USA 81 4.1 21:50:47 10° N 21:56:01 60° E 21:59:59 17° SSE
BREEZE M DEB (TANK) 4.4 21:36:38 10° WSW 21:58:24 78° SSE 22:03:44 10° ENE
USA 234 4.1 21:52:30 10° E 21:58:43 47° N 22:04:54 10° WNW
SPOT 1/Viking Rocket 4.3 21:55:58 20° ESE 21:58:56 37° ENE 22:03:43 10° N
Meteor 2-10 Rocket 3.8 21:53:58 10° S 21:59:38 65° E 22:05:26 10° NNE
Cosmos 1515 Rocket 4.4 22:01:27 10° SSW 22:05:49 52° WNW 22:10:13 10° N
H-2A R/B 1.9 22:03:24 20° SSE 22:06:52 73° ENE 22:11:49 10° N
Cosmos 1371 Rocket 4.0 22:02:29 10° SSW 22:07:48 81° ESE 22:13:12 10° NNE
BREEZE-M DEB (TANK) 2.2 22:02:03 10° W 22:08:10 78° N 22:09:31 27° E
Cosmos 2344 4.1 22:05:29 10° S 22:12:14 36° ESE 22:19:36 10° NE
Cosmos 1980 4.0 22:07:02 10° SW 22:12:42 70° WNW 22:18:25 10° NNE
Cosmos 676 Rocket 4.0 22:08:48 10° NNW 22:14:05 75° ENE 22:16:59 27° SSE
Cosmos 2228 Rocket 4.3 22:10:39 10° SSW 22:14:50 42° WNW 22:19:03 10° N
Cosmos 2297 3.7 22:09:29 10° NNW 22:15:11 80° WSW 22:18:50 23° SSE
ATLAS CENTAUR R/B 2.5 22:13:31 10° WSW 22:17:04 41° NW 22:20:50 10° NNE
Terra 2.9 22:17:04 23° E 22:18:47 29° ENE 22:22:54 10° N
Cosmos 2369 Rocket 3.3 22:15:10 10° NNW 22:20:17 32° NE 22:23:13 20° E
Cosmos 1727 Rocket 4.1 22:14:23 10° NNW 22:20:35 76° W 22:25:51 15° S
Cosmos 1023 Rocket 4.4 22:17:25 10° NNW 22:22:37 75° ENE 22:25:06 31° SE
Cosmos 2333 Rocket 3.6 22:20:17 10° WSW 22:25:35 40° NW 22:30:56 10° NNE
USA 245 2.3 22:26:45 65° N 22:26:45 65° N 22:28:47 10° NNW
Cosmos 1821 Rocket 4.3 22:23:42 26° SSE 22:27:02 48° E 22:33:02 10° NNE
BREEZE-M DEB (TANK) 1.8 22:25:18 10° W 22:27:31 70° N 22:27:38 68° NNE
Cosmos 1933 3.6 22:28:22 41° SE 22:29:10 48° E 22:33:07 10° NNE
Cosmos 2056 Rocket 3.6 22:23:47 10° SSW 22:29:13 86° WNW 22:34:39 10° NNE
Cosmos 1452 Rocket 3.9 22:28:21 32° SSE 22:30:06 42° ESE 22:35:02 10° NE
Cosmos 1869 4.5 22:27:15 10° SSW 22:31:06 43° WNW 22:34:58 10° N
CZ-2C R/B 4.4 22:32:02 10° NE 22:34:49 15° E 22:34:49 15° E
SL-19 R/B 4.3 22:33:47 32° SE 22:36:24 68° ENE 22:42:01 10° NNW
Cosmos 2219 Rocket 4.2 22:32:08 10° WSW 22:37:07 31° NW 22:42:05 10° NNE
Lacrosse 5 2.4 22:34:02 10° NW 22:39:00 52° NNE 22:41:35 27° E
Cosmos 2098 Rocket 4.0 22:35:04 10° SSW 22:39:15 41° WNW 22:42:40 10° N
SL-8 R/B 3.6 22:34:32 10° WSW 22:39:18 68° SSE 22:41:43 29° E
Resurs 01 Rocket 4.4 22:37:23 10° WSW 22:39:39 14° W 22:41:56 10° WNW
Cosmos 2237 Rocket 3.1 22:34:31 10° SW 22:39:58 49° NW 22:45:28 10° NNE
Cosmos 2123 Rocket 4.3 22:34:16 10° N 22:40:25 50° ENE 22:42:53 33° SE
SPOT 5 2.6 22:40:08 40° SSE 22:41:46 85° ENE 22:46:13 10° NNW
Cosmos 1850 Rocket 4.2 22:39:43 10° NNW 22:44:50 56° ENE 22:46:29 39° ESE
Cosmos 1140 Rocket 3.5 22:40:06 10° NNW 22:45:18 74° WSW 22:47:25 36° S
Cosmos 2278 Rocket 4.3 22:41:14 10° NW 22:45:21 21° W 22:49:25 10° SSW
Cosmos 1624 Rocket 4.5 22:40:59 10° SW 22:46:07 61° WNW 22:51:17 10° NNE
ATLAS 5 CENTAUR R/B 2.9 22:40:53 10° NW 22:46:23 48° NE 22:49:31 27° E
Cosmos 1441 Rocket 3.6 22:46:04 28° SSW 22:47:52 60° WNW 22:51:37 10° N
Meteor 1-26 Rocket 4.5 22:46:55 38° SE 22:48:18 47° E 22:53:36 10° NNE
Cosmos 1741 Rocket 4.1 22:47:47 10° NNW 22:53:07 64° ENE 22:54:41 43° SE
GENESIS II 4.5 22:51:36 10° NNW 22:55:31 56° NE 22:55:57 52° ENE
Cosmos 1954 Rocket 4.3 22:52:28 10° NNW 22:57:36 58° WSW 22:59:36 35° S
NOSS 3-4 (C) 4.5 22:52:03 10° NW 22:58:40 46° WSW 23:02:32 26° S
Cosmos 1535 Rocket 4.5 22:55:55 35° SSE 22:58:40 68° E 23:05:02 10° NNE
Cosmos 1862 Rocket 4.0 22:58:57 45° E 22:58:57 45° E 23:03:03 10° NNE
Cosmos 1241 Rocket 4.4 22:54:57 10° NW 23:01:16 82° SW 23:03:39 41° SSE
Meteor 1-20 Rocket 4.2 22:59:08 10° N 23:04:34 62° ENE 23:05:54 47° SE
Helios 1B rocket 2.3 23:00:28 10° NNE 23:04:37 83° ESE 23:05:06 68° S
USA 267 3.4 22:59:12 10° ENE 23:05:29 47° SE 23:11:43 10° SSW
Cosmos 921 Rocket 3.9 23:09:19 34° ENE 23:09:19 34° ENE 23:12:20 10° NNE
GEOS 3 Rocket 3.5 23:05:33 10° NE 23:10:57 75° SE 23:14:43 20° SSW
CZ-4C R/B 2.2 23:15:28 54° SE 23:15:50 55° ESE 23:21:43 10° NE
Cosmos 1605 Rocket 4.1 23:15:49 46° SE 23:17:22 57° E 23:23:37 10° NNE
Cosmos 405 Rocket 4.4 23:16:37 18° WSW 23:18:47 31° WNW 23:22:22 10° N
Cosmos 1437 Rocket 3.0 23:15:06 10° NNW 23:18:55 60° W 23:19:00 60° WSW
Meteor 2-17 Rocket 4.4 23:18:23 48° SSE 23:20:07 70° E 23:26:14 10° NNE
RESURS DK-1 2.6 23:17:06 10° NNW 23:21:11 58° NE 23:21:11 58° NE
CZ-2C R/B 2.8 23:20:47 60° ESE 23:21:16 65° ENE 23:26:05 10° N
Cosmos 1943 Rocket 2.2 23:24:50 10° NNW 23:30:22 67° ENE 23:31:20 56° ESE
SL-16 R/B 3.1 23:25:20 10° SW 23:30:47 47° NW 23:36:17 10° NNE
Cosmos 1633 3.2 23:27:54 10° NNW 23:30:48 52° NW 23:30:48 52° NW
Cosmos 1420 Rocket 4.1 23:30:04 38° SW 23:32:11 75° WNW 23:37:32 10° NNE
Cosmos 1733 Rocket 3.6 23:31:26 10° NNW 23:35:41 48° W 23:36:06 47° WSW
CARTOSAT-1 4.1 23:36:54 49° WSW 23:37:09 50° W 23:41:22 10° NNW
YAOGAN 11 4.3 23:37:41 60° WSW 23:37:44 60° WSW 23:42:01 10° NNW
Meteor 1-4 Rocket 3.6 23:34:18 10° NNW 23:36:54 43° NW 23:36:54 43° NW
Cosmos 1461 3.6 23:36:34 10° NNW 23:41:15 51° NE 23:41:38 50° ENE
USA 234 3.2 23:38:51 42° ESE 23:41:21 82° NNE 23:47:56 10° NW
Mayak 1.3 23:39:28 10° NE 23:39:54 11° ENE 23:39:54 11° ENE
Sich 1 Rocket 3.8 23:37:55 10° N 23:42:14 63° NE 23:42:14 63° NE
Cosmos 1934 Rocket 4.1 23:42:21 38° SSW 23:44:42 67° WNW 23:50:45 10° N
Meteor 1-29 4.3 23:41:40 10° N 23:44:26 37° NW 23:44:26 37° NW
H-2A R/B 4.3 23:44:01 11° SW 23:46:49 17° W 23:49:59 10° NW
Nimbus 7 Rocket 4.3 23:41:19 10° NNE 23:47:16 87° WNW 23:48:44 54° SSW
Meteor 1-11 Rocket 4.0 23:44:58 10° N 23:50:29 51° ENE 23:50:56 49° E
